Weather History for Smyrna, TN

Change the Weather History Date:

Friday, November 18, 2011

  Actual Average Record
Temperature  
Mean Temperature 40 °F -  
Max Temperature 59 °F 56 °F 71 °F (1998)
Min Temperature 22 °F 41 °F 17 °F (2014)
Degree Days  
Heating Degree Days 24    
Moisture  
Dew Point 24 °F    
Average Humidity 56    
Maximum Humidity 92    
Minimum Humidity 25    
Precipitation  
Precipitation 0.00 in - - ()
Sea Level Pressure  
Sea Level Pressure 30.32 in    
Wind  
Wind Speed 3 mph (South)    
Max Wind Speed 9 mph    
Max Gust Speed -    
Visibility 10 miles    
Events      
Averages and records for this station are not official NWS values.
T = Trace of Precipitation, MM = Missing Value Source: NWS Daily Summary

Daily Weather History Graph

Daily Weather History Graph

Search for Another Location

Airport:

Trip Planner

Search our weather history database for the weather conditions in past years. The results will help you decide how hot, cold, wet, or windy it might be!

Date:

Astronomy

Nov. 18, 2011 Rise Set
Actual Time 6:25 AM CST 4:36 PM CST
Civil Twilight 5:57 AM CST 5:04 PM CST
Nautical Twilight 5:26 AM CST 5:35 PM CST
Astronomical Twilight 4:56 AM CST 6:05 PM CST
Moon 11:57 PM CST (11/18) 12:10 PM CST (11/18)
Length of Visible Light 11h 06m
Length of Day
10h 11m
Waning Gibbous, 49% of the Moon is Illuminated
Nov 18
Waning Gibbous
Nov 25
New
Dec 2
First Quarter
Dec 10
Full
Dec 17
Last Quarter

Hourly Weather History & Observations

Time (CST) Temp. Windchill Dew Point Humidity Pressure Visibility Wind Dir Wind Speed Gust Speed Precip Events Conditions
1:56 AM 25.2 °F - 23.0 °F 91% 30.41 in 10.0 mi Calm Calm - N/A   Clear
2:56 AM 24.1 °F - 22.1 °F 92% 30.42 in 10.0 mi Calm Calm - N/A   Clear
4:56 AM 23.0 °F - 21.0 °F 92% 30.44 in 10.0 mi Calm Calm - N/A   Clear
5:56 AM 22.1 °F - 20.1 °F 92% 30.45 in 10.0 mi Calm Calm - N/A   Clear
6:56 AM 24.1 °F 19.7 °F 21.0 °F 88% 30.45 in 10.0 mi SSE 3.5 mph - N/A   Clear
7:56 AM 30.0 °F - 27.1 °F 89% 30.45 in 5.0 mi Calm Calm - N/A   Clear
8:56 AM 37.9 °F 35.5 °F 29.1 °F 71% 30.44 in 10.0 mi South 3.5 mph - N/A   Clear
9:56 AM 45.9 °F 42.9 °F 25.2 °F 44% 30.42 in 10.0 mi SSW 5.8 mph - N/A   Clear
11:56 AM 55.9 °F - 20.1 °F 25% 30.33 in 10.0 mi Variable 6.9 mph - N/A   Clear
12:56 PM 56.8 °F - 22.1 °F 26% 30.30 in 10.0 mi South 8.1 mph - N/A   Clear
1:56 PM 57.9 °F - 25.2 °F 28% 30.27 in 10.0 mi South 8.1 mph - N/A   Clear
2:56 PM 59.0 °F - 24.1 °F 26% 30.25 in 10.0 mi South 9.2 mph - N/A   Clear
3:56 PM 54.9 °F - 24.1 °F 30% 30.25 in 10.0 mi South 9.2 mph - N/A   Clear
4:56 PM 50.9 °F - 24.1 °F 35% 30.23 in 10.0 mi South 4.6 mph - N/A   Clear
5:56 PM 45.9 °F 44.6 °F 26.1 °F 46% 30.24 in 10.0 mi SSW 3.5 mph - N/A   Clear
6:56 PM 43.9 °F 40.5 °F 27.1 °F 52% 30.24 in 10.0 mi South 5.8 mph - N/A   Clear
7:56 PM 43.9 °F 40.5 °F 26.1 °F 50% 30.24 in 10.0 mi South 5.8 mph - N/A   Clear
8:56 PM 43.9 °F 39.9 °F 25.2 °F 48% 30.24 in 10.0 mi South 6.9 mph - N/A   Clear
9:56 PM 43.9 °F 39.3 °F 26.1 °F 50% 30.24 in 10.0 mi South 8.1 mph - N/A   Clear
10:56 PM 45.0 °F 41.2 °F 26.1 °F 48% 30.24 in 10.0 mi South 6.9 mph - N/A   Clear
11:56 PM 43.9 °F 39.9 °F 25.2 °F 48% 30.24 in 10.0 mi South 6.9 mph - N/A   Clear